Year,Month,Day,Hour,Minute,Value (Times are PST for temperature in C)
2012,06,20,00,00,8.80
2012,06,20,00,01,8.80
2012,06,20,00,02,8.80
2012,06,20,00,03,8.80
2012,06,20,00,04,8.80
2012,06,20,00,05,8.80
2012,06,20,00,06,8.70
2012,06,20,00,07,8.70
2012,06,20,00,08,8.60
2012,06,20,00,09,8.60
2012,06,20,00,10,8.60
2012,06,20,00,11,8.50
2012,06,20,00,12,8.50
2012,06,20,00,13,8.50
2012,06,20,00,14,8.40
2012,06,20,00,15,8.40
2012,06,20,00,16,8.40
2012,06,20,00,17,8.30
2012,06,20,00,18,8.30
2012,06,20,00,19,8.30
2012,06,20,00,20,8.30
2012,06,20,00,21,8.30
2012,06,20,00,22,8.30
2012,06,20,00,23,8.30
2012,06,20,00,24,8.30
2012,06,20,00,25,8.30
2012,06,20,00,26,8.30
2012,06,20,00,27,8.30
2012,06,20,00,28,8.30
2012,06,20,00,29,8.30
2012,06,20,00,30,8.30
2012,06,20,00,31,8.30
2012,06,20,00,32,8.30
2012,06,20,00,33,8.30
2012,06,20,00,34,8.20
2012,06,20,00,35,8.20
2012,06,20,00,36,8.20
2012,06,20,00,37,8.20
2012,06,20,00,38,8.20
2012,06,20,00,39,8.20
2012,06,20,00,40,8.10
2012,06,20,00,41,8.10
2012,06,20,00,42,8.10
2012,06,20,00,43,8.10
2012,06,20,00,44,8.10
2012,06,20,00,45,8.00
2012,06,20,00,46,8.00
2012,06,20,00,47,8.00
2012,06,20,00,48,7.90
2012,06,20,00,49,7.90
2012,06,20,00,50,7.90
2012,06,20,00,51,7.90
2012,06,20,00,52,7.80
2012,06,20,00,53,7.80
2012,06,20,00,54,7.80
2012,06,20,00,55,7.80
2012,06,20,00,56,7.80
2012,06,20,00,57,7.80
2012,06,20,00,58,7.80
2012,06,20,00,59,7.80
2012,06,20,01,00,7.80
2012,06,20,01,01,7.80
2012,06,20,01,02,7.80
2012,06,20,01,03,7.90
2012,06,20,01,04,7.90
2012,06,20,01,05,7.90
2012,06,20,01,06,7.90
2012,06,20,01,07,7.80
2012,06,20,01,08,7.80
2012,06,20,01,09,7.80
2012,06,20,01,10,7.80
2012,06,20,01,11,7.80
2012,06,20,01,12,7.80
2012,06,20,01,13,7.90
2012,06,20,01,14,7.90
2012,06,20,01,15,7.90
2012,06,20,01,16,7.90
2012,06,20,01,17,7.80
2012,06,20,01,18,7.80
2012,06,20,01,19,7.80
2012,06,20,01,20,7.80
2012,06,20,01,21,7.80
2012,06,20,01,22,7.80
2012,06,20,01,23,7.70
2012,06,20,01,24,7.70
2012,06,20,01,25,7.70
2012,06,20,01,26,7.70
2012,06,20,01,27,7.70
2012,06,20,01,28,7.70
2012,06,20,01,29,7.70
2012,06,20,01,30,7.70
2012,06,20,01,31,7.70
2012,06,20,01,32,7.70
2012,06,20,01,33,7.70
2012,06,20,01,34,7.60
2012,06,20,01,35,7.60
2012,06,20,01,36,7.60
2012,06,20,01,37,7.60
2012,06,20,01,38,7.60
2012,06,20,01,39,7.50
2012,06,20,01,40,7.50
2012,06,20,01,41,7.50
2012,06,20,01,42,7.40
2012,06,20,01,43,7.40
2012,06,20,01,44,7.40
2012,06,20,01,45,7.40
2012,06,20,01,46,7.40
2012,06,20,01,47,7.40
2012,06,20,01,48,7.40
2012,06,20,01,49,7.30
2012,06,20,01,50,7.30
2012,06,20,01,51,7.30
2012,06,20,01,52,7.30
2012,06,20,01,53,7.30
2012,06,20,01,54,7.30
2012,06,20,01,55,7.20
2012,06,20,01,56,7.20
2012,06,20,01,57,7.20
2012,06,20,01,58,7.20
2012,06,20,01,59,7.20
2012,06,20,02,00,7.20
2012,06,20,02,01,7.20
2012,06,20,02,02,7.20
2012,06,20,02,03,7.20
2012,06,20,02,04,7.20
2012,06,20,02,05,7.20
2012,06,20,02,06,7.20
2012,06,20,02,07,7.20
2012,06,20,02,08,7.20
2012,06,20,02,09,7.30
2012,06,20,02,10,7.30
2012,06,20,02,11,7.30
2012,06,20,02,12,7.30
2012,06,20,02,13,7.30
2012,06,20,02,14,7.30
2012,06,20,02,15,7.30
2012,06,20,02,16,7.30
2012,06,20,02,17,7.30
2012,06,20,02,18,7.30
2012,06,20,02,19,7.40
2012,06,20,02,20,7.40
2012,06,20,02,21,7.30
2012,06,20,02,22,7.30
2012,06,20,02,23,7.30
2012,06,20,02,24,7.30
2012,06,20,02,25,7.30
2012,06,20,02,26,7.20
2012,06,20,02,27,7.20
2012,06,20,02,28,7.20
2012,06,20,02,29,7.20
2012,06,20,02,30,7.20
2012,06,20,02,31,7.10
2012,06,20,02,32,7.10
2012,06,20,02,33,7.10
2012,06,20,02,34,7.10
2012,06,20,02,35,7.10
2012,06,20,02,36,7.10
2012,06,20,02,37,7.10
2012,06,20,02,38,7.10
2012,06,20,02,39,7.10
2012,06,20,02,40,7.10
2012,06,20,02,41,7.10
2012,06,20,02,42,7.10
2012,06,20,02,43,7.00
2012,06,20,02,44,7.00
2012,06,20,02,45,7.00
2012,06,20,02,46,6.90
2012,06,20,02,47,6.90
2012,06,20,02,48,6.90
2012,06,20,02,49,6.90
2012,06,20,02,50,6.90
2012,06,20,02,51,6.90
2012,06,20,02,52,6.90
2012,06,20,02,53,6.90
2012,06,20,02,54,6.90
2012,06,20,02,55,6.90
2012,06,20,02,56,6.90
2012,06,20,02,57,6.90
2012,06,20,02,58,6.90
2012,06,20,02,59,6.90
2012,06,20,03,00,6.90
2012,06,20,03,01,6.90
2012,06,20,03,02,6.90
2012,06,20,03,03,6.80
2012,06,20,03,04,6.80
2012,06,20,03,05,6.80
2012,06,20,03,06,6.80
2012,06,20,03,07,6.70
2012,06,20,03,08,6.70
2012,06,20,03,09,6.70
2012,06,20,03,10,6.60
2012,06,20,03,11,6.60
2012,06,20,03,12,6.60
2012,06,20,03,13,6.50
2012,06,20,03,14,6.50
2012,06,20,03,15,6.50
2012,06,20,03,16,6.50
2012,06,20,03,17,6.50
2012,06,20,03,18,6.50
2012,06,20,03,19,6.50
2012,06,20,03,20,6.40
2012,06,20,03,21,6.40
2012,06,20,03,22,6.40
2012,06,20,03,23,6.40
2012,06,20,03,24,6.40
2012,06,20,03,25,6.40
2012,06,20,03,26,6.40
2012,06,20,03,27,6.40
2012,06,20,03,28,6.40
2012,06,20,03,29,6.40
2012,06,20,03,30,6.40
2012,06,20,03,31,6.40
2012,06,20,03,32,6.30
2012,06,20,03,33,6.30
2012,06,20,03,34,6.30
2012,06,20,03,35,6.30
2012,06,20,03,36,6.30
2012,06,20,03,37,6.30
2012,06,20,03,38,6.30
2012,06,20,03,39,6.30
2012,06,20,03,40,6.30
2012,06,20,03,41,6.30
2012,06,20,03,42,6.30
2012,06,20,03,43,6.20
2012,06,20,03,44,6.20
2012,06,20,03,45,6.20
2012,06,20,03,46,6.20
2012,06,20,03,47,6.20
2012,06,20,03,48,6.30
2012,06,20,03,49,6.30
2012,06,20,03,50,6.30
2012,06,20,03,51,6.30
2012,06,20,03,52,6.30
2012,06,20,03,53,6.30
2012,06,20,03,54,6.30
2012,06,20,03,55,6.30
2012,06,20,03,56,6.30
2012,06,20,03,57,6.30
2012,06,20,03,58,6.30
2012,06,20,03,59,6.30
2012,06,20,04,00,6.30
2012,06,20,04,01,6.30
2012,06,20,04,02,6.30
2012,06,20,04,03,6.30
2012,06,20,04,04,6.30
2012,06,20,04,05,6.30
2012,06,20,04,06,6.30
2012,06,20,04,07,6.30
2012,06,20,04,08,6.30
2012,06,20,04,09,6.30
2012,06,20,04,10,6.30
2012,06,20,04,11,6.30
2012,06,20,04,12,6.30
2012,06,20,04,13,6.30
2012,06,20,04,14,6.30
2012,06,20,04,15,6.30
2012,06,20,04,16,6.30
2012,06,20,04,17,6.30
2012,06,20,04,18,6.20
2012,06,20,04,19,6.20
2012,06,20,04,20,6.20
2012,06,20,04,21,6.10
2012,06,20,04,22,6.10
2012,06,20,04,23,6.10
2012,06,20,04,24,6.10
2012,06,20,04,25,6.10
2012,06,20,04,26,6.00
2012,06,20,04,27,6.00
2012,06,20,04,28,6.00
2012,06,20,04,29,5.90
2012,06,20,04,30,5.90
2012,06,20,04,31,5.90
2012,06,20,04,32,5.90
2012,06,20,04,33,5.90
2012,06,20,04,34,5.80
2012,06,20,04,35,5.80
2012,06,20,04,36,5.80
2012,06,20,04,37,5.80
2012,06,20,04,38,5.80
2012,06,20,04,39,5.80
2012,06,20,04,40,5.80
2012,06,20,04,41,5.80
2012,06,20,04,42,5.80
2012,06,20,04,43,5.80
2012,06,20,04,44,5.80
2012,06,20,04,45,5.80
2012,06,20,04,46,5.70
2012,06,20,04,47,5.70
2012,06,20,04,48,5.70
2012,06,20,04,49,5.70
2012,06,20,04,50,5.70
2012,06,20,04,51,5.70
2012,06,20,04,52,5.70
2012,06,20,04,53,5.70
2012,06,20,04,54,5.70
2012,06,20,04,55,5.70
2012,06,20,04,56,5.70
2012,06,20,04,57,5.70
2012,06,20,04,58,5.70
2012,06,20,04,59,5.80
2012,06,20,05,00,5.80
2012,06,20,05,01,5.80
2012,06,20,05,02,5.80
2012,06,20,05,03,5.80
2012,06,20,05,04,5.80
2012,06,20,05,05,5.80
2012,06,20,05,06,5.80
2012,06,20,05,07,5.80
2012,06,20,05,08,5.80
2012,06,20,05,09,5.80
2012,06,20,05,10,5.80
2012,06,20,05,11,5.70
2012,06,20,05,12,5.70
2012,06,20,05,13,5.70
2012,06,20,05,14,5.70
2012,06,20,05,15,5.70
2012,06,20,05,16,5.70
2012,06,20,05,17,5.70
2012,06,20,05,18,5.70
2012,06,20,05,19,5.70
2012,06,20,05,20,5.70
2012,06,20,05,21,5.70
2012,06,20,05,22,5.70
2012,06,20,05,23,5.70
2012,06,20,05,24,5.70
2012,06,20,05,25,5.70
2012,06,20,05,26,5.70
2012,06,20,05,27,5.70
2012,06,20,05,28,5.70
2012,06,20,05,29,5.80
2012,06,20,05,30,5.80
2012,06,20,05,31,5.80
2012,06,20,05,32,5.80
2012,06,20,05,33,5.80
2012,06,20,05,34,5.80
2012,06,20,05,35,5.80
2012,06,20,05,36,5.80
2012,06,20,05,37,5.90
2012,06,20,05,38,5.90
2012,06,20,05,39,5.90
2012,06,20,05,40,6.00
2012,06,20,05,41,6.00
2012,06,20,05,42,6.00
2012,06,20,05,43,6.10
2012,06,20,05,44,6.10
2012,06,20,05,45,6.10
2012,06,20,05,46,6.10
2012,06,20,05,47,6.10
2012,06,20,05,48,6.10
2012,06,20,05,49,6.10
2012,06,20,05,50,6.10
2012,06,20,05,51,6.10
2012,06,20,05,52,6.10
2012,06,20,05,53,6.10
2012,06,20,05,54,6.10
2012,06,20,05,55,6.10
2012,06,20,05,56,6.10
2012,06,20,05,57,6.20
2012,06,20,05,58,6.20
2012,06,20,05,59,6.20
2012,06,20,06,00,6.20
2012,06,20,06,01,6.20
2012,06,20,06,02,6.20
2012,06,20,06,03,6.30
2012,06,20,06,04,6.30
2012,06,20,06,05,6.30
2012,06,20,06,06,6.30
2012,06,20,06,07,6.40
2012,06,20,06,08,6.40
2012,06,20,06,09,6.40
2012,06,20,06,10,6.50
2012,06,20,06,11,6.50
2012,06,20,06,12,6.60
2012,06,20,06,13,6.60
2012,06,20,06,14,6.60
2012,06,20,06,15,6.70
2012,06,20,06,16,6.70
2012,06,20,06,17,6.70
2012,06,20,06,18,6.80
2012,06,20,06,19,6.90
2012,06,20,06,20,6.90
2012,06,20,06,21,7.00
2012,06,20,06,22,7.10
2012,06,20,06,23,7.10
2012,06,20,06,24,7.20
2012,06,20,06,25,7.20
2012,06,20,06,26,7.30
2012,06,20,06,27,7.30
2012,06,20,06,28,7.40
2012,06,20,06,29,7.40
2012,06,20,06,30,7.50
2012,06,20,06,31,7.50
2012,06,20,06,32,7.60
2012,06,20,06,33,7.60
2012,06,20,06,34,7.60
2012,06,20,06,35,7.60
2012,06,20,06,36,7.60
2012,06,20,06,37,7.60
2012,06,20,06,38,7.70
2012,06,20,06,39,7.70
2012,06,20,06,40,7.70
2012,06,20,06,41,7.80
2012,06,20,06,42,7.80
2012,06,20,06,43,7.90
2012,06,20,06,44,8.00
2012,06,20,06,45,8.10
2012,06,20,06,46,8.20
2012,06,20,06,47,8.20
2012,06,20,06,48,8.30
2012,06,20,06,49,8.40
2012,06,20,06,50,8.40
2012,06,20,06,51,8.50
2012,06,20,06,52,8.60
2012,06,20,06,53,8.60
2012,06,20,06,54,8.70
2012,06,20,06,55,8.70
2012,06,20,06,56,8.80
2012,06,20,06,57,8.90
2012,06,20,06,58,9.00
2012,06,20,06,59,9.00
2012,06,20,07,00,9.20
2012,06,20,07,01,9.20
2012,06,20,07,02,9.30
2012,06,20,07,03,9.40
2012,06,20,07,04,9.50
2012,06,20,07,05,9.60
2012,06,20,07,06,9.60
2012,06,20,07,07,9.70
2012,06,20,07,08,9.70
2012,06,20,07,09,9.80
2012,06,20,07,10,9.80
2012,06,20,07,11,9.90
2012,06,20,07,12,10.00
2012,06,20,07,13,10.00
2012,06,20,07,14,10.10
2012,06,20,07,15,10.20
2012,06,20,07,16,10.30
2012,06,20,07,17,10.40
2012,06,20,07,18,10.50
2012,06,20,07,19,10.50
2012,06,20,07,20,10.70
2012,06,20,07,21,10.80
2012,06,20,07,22,10.90
2012,06,20,07,23,11.00
2012,06,20,07,24,11.20
2012,06,20,07,25,11.30
2012,06,20,07,26,11.40
2012,06,20,07,27,11.50
2012,06,20,07,28,11.60
2012,06,20,07,29,11.80
2012,06,20,07,30,11.80
2012,06,20,07,31,11.90
2012,06,20,07,32,12.00
2012,06,20,07,33,12.10
2012,06,20,07,34,12.20
2012,06,20,07,35,12.30
2012,06,20,07,36,12.40
2012,06,20,07,37,12.50
2012,06,20,07,38,12.60
2012,06,20,07,39,12.70
2012,06,20,07,40,12.70
2012,06,20,07,41,12.80
2012,06,20,07,42,12.90
2012,06,20,07,43,13.00
2012,06,20,07,44,13.10
2012,06,20,07,45,13.10
2012,06,20,07,46,13.20
2012,06,20,07,47,13.30
2012,06,20,07,48,13.30
2012,06,20,07,49,13.30
2012,06,20,07,50,13.40
2012,06,20,07,51,13.50
2012,06,20,07,52,13.50
2012,06,20,07,53,13.60
2012,06,20,07,54,13.60
2012,06,20,07,55,13.70
2012,06,20,07,56,13.70
2012,06,20,07,57,13.80
2012,06,20,07,58,13.80
2012,06,20,07,59,13.90
2012,06,20,08,00,13.90
2012,06,20,08,01,13.90
2012,06,20,08,02,13.90
2012,06,20,08,03,13.90
2012,06,20,08,04,13.90
2012,06,20,08,05,13.90
2012,06,20,08,06,14.00
2012,06,20,08,07,14.00
2012,06,20,08,08,14.10
2012,06,20,08,09,14.10
2012,06,20,08,10,14.10
2012,06,20,08,11,14.10
2012,06,20,08,12,14.10
2012,06,20,08,13,14.10
2012,06,20,08,14,14.10
2012,06,20,08,15,14.10
2012,06,20,08,16,14.10
2012,06,20,08,17,14.10
2012,06,20,08,18,14.00
2012,06,20,08,19,14.00
2012,06,20,08,20,14.00
2012,06,20,08,21,14.00
2012,06,20,08,22,14.00
2012,06,20,08,23,14.00
2012,06,20,08,24,14.00
2012,06,20,08,25,14.10
2012,06,20,08,26,14.10
2012,06,20,08,27,14.10
2012,06,20,08,28,14.20
2012,06,20,08,29,14.20
2012,06,20,08,30,14.20
2012,06,20,08,31,14.20
2012,06,20,08,32,14.30
2012,06,20,08,33,14.30
2012,06,20,08,34,14.30
2012,06,20,08,35,14.30
2012,06,20,08,36,14.30
2012,06,20,08,37,14.40
2012,06,20,08,38,14.40
2012,06,20,08,39,14.40
2012,06,20,08,40,14.50
2012,06,20,08,41,14.50
2012,06,20,08,42,14.60
2012,06,20,08,43,14.60
2012,06,20,08,44,14.70
2012,06,20,08,45,14.70
2012,06,20,08,46,14.70
2012,06,20,08,47,14.70
2012,06,20,08,48,14.70
2012,06,20,08,49,14.80
2012,06,20,08,50,14.80
2012,06,20,08,51,14.80
2012,06,20,08,52,14.90
2012,06,20,08,53,14.90
2012,06,20,08,54,14.80
2012,06,20,08,55,14.80
2012,06,20,08,56,14.70
2012,06,20,08,57,14.70
2012,06,20,08,58,14.60
2012,06,20,08,59,14.60
2012,06,20,09,00,14.60
2012,06,20,09,01,14.60
2012,06,20,09,02,14.60
2012,06,20,09,03,14.70
2012,06,20,09,04,14.70
2012,06,20,09,05,14.70
2012,06,20,09,06,14.70
2012,06,20,09,07,14.70
2012,06,20,09,08,14.70
2012,06,20,09,09,14.70
2012,06,20,09,10,14.70
2012,06,20,09,11,14.70
2012,06,20,09,12,14.70
2012,06,20,09,13,14.70
2012,06,20,09,14,14.70
2012,06,20,09,15,14.70
2012,06,20,09,16,14.80
2012,06,20,09,17,14.80
2012,06,20,09,18,14.80
2012,06,20,09,19,14.80
2012,06,20,09,20,14.80
2012,06,20,09,21,14.80
2012,06,20,09,22,14.80
2012,06,20,09,23,14.80
2012,06,20,09,24,14.80
2012,06,20,09,25,14.80
2012,06,20,09,26,14.80
2012,06,20,09,27,14.70
2012,06,20,09,28,14.70
2012,06,20,09,29,14.70
2012,06,20,09,30,14.70
2012,06,20,09,31,14.70
2012,06,20,09,32,14.80
2012,06,20,09,33,14.80
2012,06,20,09,34,14.80
2012,06,20,09,35,14.90
2012,06,20,09,36,14.90
2012,06,20,09,37,14.90
2012,06,20,09,38,15.00
2012,06,20,09,39,15.00
2012,06,20,09,40,15.10
2012,06,20,09,41,15.10
2012,06,20,09,42,15.20
2012,06,20,09,43,15.20
2012,06,20,09,44,15.20
2012,06,20,09,45,15.10
2012,06,20,09,46,15.00
2012,06,20,09,47,14.90
2012,06,20,09,48,14.90
2012,06,20,09,49,14.80
2012,06,20,09,50,14.80
2012,06,20,09,51,14.70
2012,06,20,09,52,14.70
2012,06,20,09,53,14.60
2012,06,20,09,54,14.60
2012,06,20,09,55,14.50
2012,06,20,09,56,14.50
2012,06,20,09,57,14.50
2012,06,20,09,58,14.50
2012,06,20,09,59,14.50
2012,06,20,10,00,14.60
2012,06,20,10,01,14.60
2012,06,20,10,02,14.60
2012,06,20,10,03,14.70
2012,06,20,10,04,14.70
2012,06,20,10,05,14.70
2012,06,20,10,06,14.70
2012,06,20,10,07,14.70
2012,06,20,10,08,14.70
2012,06,20,10,09,14.70
2012,06,20,10,10,14.70
2012,06,20,10,11,14.80
2012,06,20,10,12,14.80
2012,06,20,10,13,14.80
2012,06,20,10,14,14.90
2012,06,20,10,15,14.90
2012,06,20,10,16,14.90
2012,06,20,10,17,14.80
2012,06,20,10,18,14.80
2012,06,20,10,19,14.80
2012,06,20,10,20,14.80
2012,06,20,10,21,14.80
2012,06,20,10,22,14.80
2012,06,20,10,23,14.80
2012,06,20,10,24,14.80
2012,06,20,10,25,14.80
2012,06,20,10,26,14.80
2012,06,20,10,27,14.80
2012,06,20,10,28,14.80
2012,06,20,10,29,14.80
2012,06,20,10,30,14.70
2012,06,20,10,31,14.70
2012,06,20,10,32,14.70
2012,06,20,10,33,14.70
2012,06,20,10,34,14.70
2012,06,20,10,35,14.70
2012,06,20,10,36,14.70
2012,06,20,10,37,14.80
2012,06,20,10,38,14.80
2012,06,20,10,39,14.90
2012,06,20,10,40,14.90
2012,06,20,10,41,14.90
2012,06,20,10,42,14.90
2012,06,20,10,43,15.00
2012,06,20,10,44,15.00
2012,06,20,10,45,15.10
2012,06,20,10,46,15.20
2012,06,20,10,47,15.30
2012,06,20,10,48,15.30
2012,06,20,10,49,15.40
2012,06,20,10,50,15.50
2012,06,20,10,51,15.60
2012,06,20,10,52,15.60
2012,06,20,10,53,15.70
2012,06,20,10,54,15.70
2012,06,20,10,55,15.80
2012,06,20,10,56,15.80
2012,06,20,10,57,15.90
2012,06,20,10,58,16.00
2012,06,20,10,59,16.10
2012,06,20,11,00,16.20
2012,06,20,11,01,16.20
2012,06,20,11,02,16.20
2012,06,20,11,03,16.30
2012,06,20,11,04,16.30
2012,06,20,11,05,16.40
2012,06,20,11,06,16.40
2012,06,20,11,07,16.40
2012,06,20,11,08,16.50
2012,06,20,11,09,16.50
2012,06,20,11,10,16.60
2012,06,20,11,11,16.60
2012,06,20,11,12,16.70
2012,06,20,11,13,16.80
2012,06,20,11,14,16.90
2012,06,20,11,15,17.00
2012,06,20,11,16,17.00
2012,06,20,11,17,17.10
2012,06,20,11,18,17.10
2012,06,20,11,19,17.20
2012,06,20,11,20,17.20
2012,06,20,11,21,17.30
2012,06,20,11,22,17.30
2012,06,20,11,23,17.40
2012,06,20,11,24,17.50
2012,06,20,11,25,17.50
2012,06,20,11,26,17.60
2012,06,20,11,27,17.70
2012,06,20,11,28,17.70
2012,06,20,11,29,17.70
2012,06,20,11,30,17.80
2012,06,20,11,31,17.80
2012,06,20,11,32,17.80
2012,06,20,11,33,17.90
2012,06,20,11,34,17.90
2012,06,20,11,35,17.80
2012,06,20,11,36,17.80
2012,06,20,11,37,17.70
2012,06,20,11,38,17.80
2012,06,20,11,39,17.80
2012,06,20,11,40,17.90
2012,06,20,11,41,17.90
2012,06,20,11,42,17.90
2012,06,20,11,43,17.90
2012,06,20,11,44,18.00
2012,06,20,11,45,18.00
2012,06,20,11,46,18.10
2012,06,20,11,47,18.10
2012,06,20,11,48,18.10
2012,06,20,11,49,18.10
2012,06,20,11,50,18.10
2012,06,20,11,51,18.10
2012,06,20,11,52,18.10
2012,06,20,11,53,18.10
2012,06,20,11,54,18.00
2012,06,20,11,55,17.90
2012,06,20,11,56,17.80
2012,06,20,11,57,17.60
2012,06,20,11,58,17.60
2012,06,20,11,59,17.50
2012,06,20,12,00,17.50
2012,06,20,12,01,17.40
2012,06,20,12,02,17.30
2012,06,20,12,03,17.20
2012,06,20,12,04,17.10
2012,06,20,12,05,17.10
2012,06,20,12,06,17.00
2012,06,20,12,07,16.90
2012,06,20,12,08,16.80
2012,06,20,12,09,16.80
2012,06,20,12,10,16.80
2012,06,20,12,11,16.80
2012,06,20,12,12,16.80
2012,06,20,12,13,16.80
2012,06,20,12,14,16.80
2012,06,20,12,15,16.80
2012,06,20,12,16,16.80
2012,06,20,12,17,16.80
2012,06,20,12,18,16.80
2012,06,20,12,19,16.90
2012,06,20,12,20,16.90
2012,06,20,12,21,16.90
2012,06,20,12,22,17.00
2012,06,20,12,23,17.00
2012,06,20,12,24,17.10
2012,06,20,12,25,17.10
2012,06,20,12,26,17.10
2012,06,20,12,27,17.10
2012,06,20,12,28,17.10
2012,06,20,12,29,17.10
2012,06,20,12,30,17.10
2012,06,20,12,31,17.10
2012,06,20,12,32,17.10
2012,06,20,12,33,17.10
2012,06,20,12,34,17.10
2012,06,20,12,35,17.10
2012,06,20,12,36,17.20
2012,06,20,12,37,17.30
2012,06,20,12,38,17.30
2012,06,20,12,39,17.20
2012,06,20,12,40,17.20
2012,06,20,12,41,17.10
2012,06,20,12,42,17.10
2012,06,20,12,43,17.20
2012,06,20,12,44,17.20
2012,06,20,12,45,17.30
2012,06,20,12,46,17.40
2012,06,20,12,47,17.50
2012,06,20,12,48,17.60
2012,06,20,12,49,17.60
2012,06,20,12,50,17.70
2012,06,20,12,51,17.70
2012,06,20,12,52,17.70
2012,06,20,12,53,17.60
2012,06,20,12,54,17.50
2012,06,20,12,55,17.50
2012,06,20,12,56,17.50
2012,06,20,12,57,17.40
2012,06,20,12,58,17.40
2012,06,20,12,59,17.30
2012,06,20,13,00,17.20
2012,06,20,13,01,17.20
2012,06,20,13,02,17.10
2012,06,20,13,03,17.00
2012,06,20,13,04,17.10
2012,06,20,13,05,17.10
2012,06,20,13,06,17.10
2012,06,20,13,07,17.20
2012,06,20,13,08,17.30
2012,06,20,13,09,17.40
2012,06,20,13,10,17.50
2012,06,20,13,11,17.60
2012,06,20,13,12,17.60
2012,06,20,13,13,17.70
2012,06,20,13,14,17.80
2012,06,20,13,15,17.80
2012,06,20,13,16,17.90
2012,06,20,13,17,18.00
2012,06,20,13,18,18.10
2012,06,20,13,19,18.10
2012,06,20,13,20,18.10
2012,06,20,13,21,18.10
2012,06,20,13,22,18.20
2012,06,20,13,23,18.20
2012,06,20,13,24,18.20
2012,06,20,13,25,18.30
2012,06,20,13,26,18.30
2012,06,20,13,27,18.30
2012,06,20,13,28,18.20
2012,06,20,13,29,18.10
2012,06,20,13,30,18.00
2012,06,20,13,31,17.90
2012,06,20,13,32,17.90
2012,06,20,13,33,17.80
2012,06,20,13,34,17.80
2012,06,20,13,35,17.80
2012,06,20,13,36,17.80
2012,06,20,13,37,17.80
2012,06,20,13,38,17.80
2012,06,20,13,39,17.80
2012,06,20,13,40,17.80
2012,06,20,13,41,17.90
2012,06,20,13,42,17.90
2012,06,20,13,43,17.90
2012,06,20,13,44,17.90
2012,06,20,13,45,17.80
2012,06,20,13,46,17.80
2012,06,20,13,47,17.80
2012,06,20,13,48,17.80
2012,06,20,13,49,17.90
2012,06,20,13,50,17.90
2012,06,20,13,51,17.90
2012,06,20,13,52,17.90
2012,06,20,13,53,17.90
2012,06,20,13,54,17.90
2012,06,20,13,55,17.80
2012,06,20,13,56,17.80
2012,06,20,13,57,17.80
2012,06,20,13,58,17.70
2012,06,20,13,59,17.70
2012,06,20,14,00,17.70
2012,06,20,14,01,17.70
2012,06,20,14,02,17.80
2012,06,20,14,03,17.90
2012,06,20,14,04,17.90
2012,06,20,14,05,17.80
2012,06,20,14,06,17.80
2012,06,20,14,07,17.80
2012,06,20,14,08,17.80
2012,06,20,14,09,17.90
2012,06,20,14,10,18.00
2012,06,20,14,11,18.10
2012,06,20,14,12,18.20
2012,06,20,14,13,18.30
2012,06,20,14,14,18.40
2012,06,20,14,15,18.50
2012,06,20,14,16,18.60
2012,06,20,14,17,18.70
2012,06,20,14,18,18.80
2012,06,20,14,19,18.80
2012,06,20,14,20,18.90
2012,06,20,14,21,18.80
2012,06,20,14,22,18.80
2012,06,20,14,23,18.80
2012,06,20,14,24,18.70
2012,06,20,14,25,18.60
2012,06,20,14,26,18.50
2012,06,20,14,27,18.40
2012,06,20,14,28,18.30
2012,06,20,14,29,18.30
2012,06,20,14,30,18.30
2012,06,20,14,31,18.20
2012,06,20,14,32,18.20
2012,06,20,14,33,18.20
2012,06,20,14,34,18.10
2012,06,20,14,35,18.00
2012,06,20,14,36,17.90
2012,06,20,14,37,17.80
2012,06,20,14,38,17.70
2012,06,20,14,39,17.70
2012,06,20,14,40,17.70
2012,06,20,14,41,17.70
2012,06,20,14,42,17.70
2012,06,20,14,43,17.70
2012,06,20,14,44,17.70
2012,06,20,14,45,17.70
2012,06,20,14,46,17.70
2012,06,20,14,47,17.70
2012,06,20,14,48,17.80
2012,06,20,14,49,17.80
2012,06,20,14,50,17.90
2012,06,20,14,51,17.90
2012,06,20,14,52,17.90
2012,06,20,14,53,17.90
2012,06,20,14,54,17.90
2012,06,20,14,55,17.80
2012,06,20,14,56,17.80
2012,06,20,14,57,17.70
2012,06,20,14,58,17.70
2012,06,20,14,59,17.60
2012,06,20,15,00,17.50
2012,06,20,15,01,17.50
2012,06,20,15,02,17.50
2012,06,20,15,03,17.50
2012,06,20,15,04,17.40
2012,06,20,15,05,17.40
2012,06,20,15,06,17.30
2012,06,20,15,07,17.40
2012,06,20,15,08,17.50
2012,06,20,15,09,17.60
2012,06,20,15,10,17.60
2012,06,20,15,11,17.70
2012,06,20,15,12,17.80
2012,06,20,15,13,17.80
2012,06,20,15,14,17.80
2012,06,20,15,15,17.80
2012,06,20,15,16,17.80
2012,06,20,15,17,17.80
2012,06,20,15,18,17.80
2012,06,20,15,19,17.70
2012,06,20,15,20,17.70
2012,06,20,15,21,17.70
2012,06,20,15,22,17.60
2012,06,20,15,23,17.60
2012,06,20,15,24,17.50
2012,06,20,15,25,17.50
2012,06,20,15,26,17.50
2012,06,20,15,27,17.50
2012,06,20,15,28,17.50
2012,06,20,15,29,17.50
2012,06,20,15,30,17.50
2012,06,20,15,31,17.40
2012,06,20,15,32,17.30
2012,06,20,15,33,17.30
2012,06,20,15,34,17.30
2012,06,20,15,35,17.30
2012,06,20,15,36,17.30
2012,06,20,15,37,17.40
2012,06,20,15,38,17.50
2012,06,20,15,39,17.50
2012,06,20,15,40,17.60
2012,06,20,15,41,17.60
2012,06,20,15,42,17.70
2012,06,20,15,43,17.80
2012,06,20,15,44,17.80
2012,06,20,15,45,17.80
2012,06,20,15,46,17.90
2012,06,20,15,47,18.00
2012,06,20,15,48,18.10
2012,06,20,15,49,18.10
2012,06,20,15,50,18.10
2012,06,20,15,51,18.10
2012,06,20,15,52,18.10
2012,06,20,15,53,18.10
2012,06,20,15,54,18.00
2012,06,20,15,55,18.00
2012,06,20,15,56,18.00
2012,06,20,15,57,18.10
2012,06,20,15,58,18.10
2012,06,20,15,59,18.20
2012,06,20,16,00,18.30
2012,06,20,16,01,18.30
2012,06,20,16,02,18.30
2012,06,20,16,03,18.30
2012,06,20,16,04,18.40
2012,06,20,16,05,18.40
2012,06,20,16,06,18.50
2012,06,20,16,07,18.50
2012,06,20,16,08,18.50
2012,06,20,16,09,18.60
2012,06,20,16,10,18.70
2012,06,20,16,11,18.80
2012,06,20,16,12,18.90
2012,06,20,16,13,19.00
2012,06,20,16,14,19.10
2012,06,20,16,15,19.20
2012,06,20,16,16,19.40
2012,06,20,16,17,19.40
2012,06,20,16,18,19.50
2012,06,20,16,19,19.50
2012,06,20,16,20,19.60
2012,06,20,16,21,19.60
2012,06,20,16,22,19.60
2012,06,20,16,23,19.70
2012,06,20,16,24,19.70
2012,06,20,16,25,19.60
2012,06,20,16,26,19.60
2012,06,20,16,27,19.60
2012,06,20,16,28,19.50
2012,06,20,16,29,19.40
2012,06,20,16,30,19.20
2012,06,20,16,31,19.10
2012,06,20,16,32,19.00
2012,06,20,16,33,18.90
2012,06,20,16,34,18.80
2012,06,20,16,35,18.80
2012,06,20,16,36,18.80
2012,06,20,16,37,18.90
2012,06,20,16,38,18.90
2012,06,20,16,39,19.00
2012,06,20,16,40,19.10
2012,06,20,16,41,19.10
2012,06,20,16,42,19.10
2012,06,20,16,43,19.10
2012,06,20,16,44,19.20
2012,06,20,16,45,19.20
2012,06,20,16,46,19.20
2012,06,20,16,47,19.30
2012,06,20,16,48,19.30
2012,06,20,16,49,19.30
2012,06,20,16,50,19.40
2012,06,20,16,51,19.40
2012,06,20,16,52,19.40
2012,06,20,16,53,19.40
2012,06,20,16,54,19.30
2012,06,20,16,55,19.30
2012,06,20,16,56,19.20
2012,06,20,16,57,19.20
2012,06,20,16,58,19.10
2012,06,20,16,59,19.10
2012,06,20,17,00,19.00
2012,06,20,17,01,19.00
2012,06,20,17,02,19.00
2012,06,20,17,03,19.10
2012,06,20,17,04,19.10
2012,06,20,17,05,19.10
2012,06,20,17,06,19.20
2012,06,20,17,07,19.20
2012,06,20,17,08,19.30
2012,06,20,17,09,19.30
2012,06,20,17,10,19.30
2012,06,20,17,11,19.30
2012,06,20,17,12,19.30
2012,06,20,17,13,19.30
2012,06,20,17,14,19.40
2012,06,20,17,15,19.50
2012,06,20,17,16,19.60
2012,06,20,17,17,19.70
2012,06,20,17,18,19.80
2012,06,20,17,19,19.80
2012,06,20,17,20,19.90
2012,06,20,17,21,19.90
2012,06,20,17,22,19.90
2012,06,20,17,23,19.90
2012,06,20,17,24,19.90
2012,06,20,17,25,19.90
2012,06,20,17,26,19.80
2012,06,20,17,27,19.70
2012,06,20,17,28,19.60
2012,06,20,17,29,19.60
2012,06,20,17,30,19.60
2012,06,20,17,31,19.60
2012,06,20,17,32,19.70
2012,06,20,17,33,19.70
2012,06,20,17,34,19.80
2012,06,20,17,35,19.80
2012,06,20,17,36,19.80
2012,06,20,17,37,19.80
2012,06,20,17,38,19.80